Location: Aiyede
(8.4833°N, 4.4500°E)
Time: 09:38:07
(UTC+00:00)

CZ-4C R/B - Pass Details

Date: 24 September 2020
Orbit: 627 x 1375 km, 63.4° (Epoch: 21 October)

Event Time Altitude Azimuth Distance (km) Brightness Sun altitude
Rises 18:48:40 0° 191° (SSW) 2,920 5.1 -18.6°
Reaches altitude 10° 18:51:00 10° 185° (S) 1,995 4.2 -19.2°
Enters shadow 18:54:53 43° 125° (SE) 884 1.9 -20.1°
